User: anonymous   Login
Location: Bathurst
(33.4193°S, 149.5775°E)
Time: 20:56:31
(UTC+10:00)
Language:

Explorer 11/Cluster Stage 4 - Orbit

View from above orbital plane
View from above orbital plane
View from above satellite
View from above satellite

Ground track
Ground track

The orbit data is extracted from the following two-line orbital elements,

1 00107U 61013A   21165.65948192  .00000752  00000-0  80230-4 0  9999
2 00107  28.7889 295.4526 0545514 172.7371 188.1490 14.09219346 17364
Epoch (UTC): 14 June 2021 15:49:39
Eccentricity: 0.0545514
inclination: 28.7889°
perigee height: 467 km
apogee height: 1257 km
right ascension of ascending node: 295.4526°
argument of perigee: 172.7371°
revolutions per day: 14.09219346
mean anomaly at epoch: 188.1490°
orbit number at epoch: 1736

The dashed part of the orbit path shows where the satellite is in the earth's shadow,  

DLR